Location: ????????
(37.8361°N, 23.0402°E)
Time: 03:37:10
(UTC+00:00)

SL-08 R/B - Pass Details

Date: 08 August 2025
Orbit: 946 x 992 km, 83.0° (Epoch: 12 December)

Event Time Altitude Azimuth Distance (km) Brightness Sun altitude
Exits shadow 20:30:24 85° 106° (ESE) 972 4.3 -29.0°
Maximum altitude 20:30:26 85° 96° (E) 972 4.3 -29.0°
Drops below altitude 10° 20:36:41 10° 8° (N) 2,724 7.4 -29.7°
Sets 20:39:13 0° 8° (N) 3,682 8.2 -30.0°
